Dansville, NY

2:06 AM EST on November 21, 2017 (GMT -0500)
Dansville Municipal

Weather History for KDSV - August, 2013

Change the Weather History Date:

Friday, August 30, 2013

  Actual Average Record
Temperature  
Mean Temperature 74 °F -  
Max Temperature 88 °F 78 °F 98 °F (1953)
Min Temperature 62 °F 56 °F 35 °F (1965)
Cooling Degree Days 9    
Growing Degree Days 24 (Base 50)    
Moisture  
Dew Point 64 °F    
Average Humidity 80    
Maximum Humidity 100    
Minimum Humidity 44    
Precipitation  
Precipitation 0.01 in - - ()
Sea Level Pressure  
Sea Level Pressure 29.96 in    
Wind  
Wind Speed 6 mph (SE)    
Max Wind Speed 12 mph    
Max Gust Speed -    
Visibility 9 miles    
Events      
Averages and records for this station are not official NWS values.
T = Trace of Precipitation, MM = Missing Value Source: NWS Daily Summary

Daily Weather History Graph

Daily Weather History Graph

Search for Another Location

Airport or City:

Trip Planner

Search our weather history database for the weather conditions in past years. The results will help you decide how hot, cold, wet, or windy it might be!

Date:

Astronomy

Aug. 30, 2013 Rise Set
Actual Time 6:33 AM EDT 7:48 PM EDT
Civil Twilight 6:04 AM EDT 8:17 PM EDT
Nautical Twilight 5:29 AM EDT 8:51 PM EDT
Astronomical Twilight 4:52 AM EDT 9:28 PM EDT
Moon 1:06 AM EDT (8/30) 4:06 PM EDT (8/30)
Length of Visible Light 14h 12m
Length of Day
13h 14m
Waning Crescent, 29% of the Moon is Illuminated
Aug 30
Waning Crescent
Sep 5
New
Sep 12
First Quarter
Sep 19
Full
Sep 26
Last Quarter

Hourly Weather History & Observations

Time (EDT) Temp. Heat Index Dew Point Humidity Pressure Visibility Wind Dir Wind Speed Gust Speed Precip Events Conditions
12:54 AM 66.0 °F - 64.0 °F 93% 30.06 in 10.0 mi SSE 4.6 mph - N/A   Clear
1:54 AM 64.9 °F - 63.0 °F 93% 30.05 in 10.0 mi SE 8.1 mph - N/A   Clear
2:44 AM 64.4 °F - 62.6 °F 94% 30.03 in 8.0 mi SE 4.6 mph - N/A   Scattered Clouds
2:54 AM 64.9 °F - 63.0 °F 93% 30.04 in 7.0 mi SE 5.8 mph - N/A   Mostly Cloudy
3:54 AM 64.0 °F - 62.1 °F 93% 30.04 in 7.0 mi ESE 6.9 mph - N/A   Overcast
4:54 AM 64.0 °F - 62.1 °F 93% 30.03 in 8.0 mi SE 5.8 mph - 0.01 in   Overcast
5:12 AM 62.6 °F - 60.8 °F 94% 30.02 in 9.0 mi ESE 5.8 mph - N/A   Scattered Clouds
5:28 AM 64.4 °F - 62.6 °F 94% 30.02 in 8.0 mi SE 5.8 mph - N/A   Mostly Cloudy
5:54 AM 63.0 °F - 62.1 °F 97% 30.04 in 9.0 mi SE 8.1 mph - N/A   Overcast
6:20 AM 62.6 °F - 60.8 °F 94% 30.02 in 9.0 mi SE 5.8 mph - N/A   Scattered Clouds
6:54 AM 63.0 °F - 61.0 °F 93% 30.03 in 6.0 mi SE 8.1 mph - N/A   Clear
7:01 AM 62.6 °F - 62.6 °F 100% 30.01 in 6.0 mi SSE 8.1 mph - N/A   Scattered Clouds
7:12 AM 62.6 °F - 62.6 °F 100% 30.01 in 6.0 mi SE 6.9 mph - N/A   Mostly Cloudy
7:32 AM 62.6 °F - 62.6 °F 100% 30.01 in 7.0 mi SE 8.1 mph - N/A   Scattered Clouds
7:54 AM 64.0 °F - 62.1 °F 93% 30.04 in 8.0 mi SE 8.1 mph - N/A   Partly Cloudy
8:54 AM 66.9 °F - 64.0 °F 90% 30.02 in 10.0 mi SE 9.2 mph - N/A   Clear
9:54 AM 72.0 °F - 66.0 °F 81% 30.01 in 10.0 mi SE 11.5 mph - N/A   Clear
10:54 AM 79.0 °F - 68.0 °F 69% 29.99 in 10.0 mi ESE 6.9 mph - N/A   Clear
11:54 AM 84.9 °F 86.1 °F 64.0 °F 49% 29.96 in 10.0 mi Calm Calm - N/A   Clear
12:54 PM 86.0 °F 86.3 °F 62.1 °F 44% 29.94 in 10.0 mi Calm Calm - N/A   Clear
1:54 PM 86.0 °F 87.3 °F 64.0 °F 48% 29.93 in 10.0 mi West 6.9 mph - N/A   Scattered Clouds
2:54 PM 86.0 °F 87.6 °F 64.9 °F 49% 29.90 in 10.0 mi NNW 4.6 mph - N/A   Mostly Cloudy
3:54 PM 86.0 °F 87.6 °F 64.9 °F 49% 29.89 in 10.0 mi Variable 3.5 mph - N/A   Scattered Clouds
4:54 PM 84.9 °F 88.2 °F 68.0 °F 57% 29.86 in 10.0 mi NNE 4.6 mph - N/A   Clear
5:54 PM 84.9 °F 87.1 °F 66.0 °F 53% 29.83 in 10.0 mi Calm Calm - N/A   Partly Cloudy
6:54 PM 82.9 °F 85.4 °F 66.9 °F 58% 29.84 in 10.0 mi WNW 5.8 mph - N/A   Scattered Clouds
7:54 PM 79.0 °F - 69.1 °F 72% 29.84 in 10.0 mi Calm Calm - N/A   Partly Cloudy
8:54 PM 75.9 °F - 70.0 °F 82% 29.86 in 10.0 mi Calm Calm - N/A   Mostly Cloudy
9:54 PM 73.9 °F - 69.1 °F 85% 29.83 in 10.0 mi SE 4.6 mph - N/A   Clear
10:54 PM 73.9 °F - 69.1 °F 85% 29.83 in 9.0 mi South 3.5 mph - N/A   Clear
11:54 PM 73.0 °F - 69.1 °F 87% 29.83 in 9.0 mi Calm Calm - N/A   Mostly Cloudy